Regional Weather Roundup
Issued by NWS

Home | Current Version | Previous Version | Text Only | Print | Product List | Glossary Off
Versions: 1 2 3 4 5 6 7 8 9 10 11 12 13 14 15 16 17 18 19 20 21 22 23 24 25 26 27 28 29 30 31 32 33 34 35 36 37 38 39 40 41 42 43 44 45 46 47 48 49 50

000
ASUS43 KOAX 112210
RWRNE

WEATHER ROUNDUP FOR NEBRASKA
NATIONAL WEATHER SERVICE OMAHA NE
400 PM CST MON DEC 11 2017

NOTES: SATELLITE DATA IS BEING USED TO AUGMENT CLOUD COVER ABOVE
       12000 FEET.
       "FAIR" INDICATES FEW OR NO CLOUDS BELOW 12,000 FEET WITH NO
       SIGNIFICANT WEATHER AND/OR OBSTRUCTIONS TO VISIBILITY.


NEZ001>004-019>022-054>056-112300-
NEBRASKA PANHANDLE

CITY           SKY/WX    TMP DP  RH WIND       PRES   REMARKS
SCOTTSBLUFF    CLOUDY    50  15  24 NW16      30.35R
ALLIANCE       MOSUNNY   46  10  23 N21G32    30.30R
CHADRON        PTSUNNY   45  17  32 N12G24    30.34R
GORDON         FAIR      42  24  49 N20       30.30R
KIMBALL        SUNNY     50   8  18 NW28G37   30.34S
SIDNEY         SUNNY     50  11  20 N30G38    30.32R
$$

NEZ057>060-069>072-079>082-112300-
SOUTHWEST NEBRASKA

CITY           SKY/WX    TMP DP  RH WIND       PRES   REMARKS
NORTH PLATTE   MOSUNNY   47  25  42 N20G32    30.27R
IMPERIAL       MOSUNNY   48  11  22 N20G32    30.28R
LEXINGTON      SUNNY     46  26  45 N25G36    30.25R
MCCOOK         SUNNY     51  23  33 N26G40    30.25R
OGALLALA       MOSUNNY   50  15  24 N18G28    30.29R
$$

NEZ005>010-023>029-035>040-094-112300-
NORTH CENTRAL NEBRASKA

CITY           SKY/WX    TMP DP  RH WIND       PRES   REMARKS
VALENTINE      CLOUDY    40  31  70 NW13G20   30.29R WCI  32
AINSWORTH      DRIZZLE   37  33  84 N24       30.28R WCI  26
BROKEN BOW     CLOUDY    42  28  57 N29G37    30.24R
O`NEILL        CLOUDY    38  32  79 NW29G38   30.23R WCI  26
ORD            CLOUDY    41  29  62 N24G35    30.23R
THEDFORD       CLOUDY    41  29  61 N16G24    30.29R
$$

NEZ041-046>049-061>064-073>077-083>087-112300-
SOUTH CENTRAL NEBRASKA

CITY           SKY/WX    TMP DP  RH WIND       PRES   REMARKS
GRAND ISLAND   CLOUDY    42  30  62 NW24G32   30.22R
AURORA         CLOUDY    43  28  56 NW22G32   30.19R
HASTINGS       CLOUDY    44  28  53 N30G41    30.21R
HEBRON         CLOUDY    47  28  47 NW22G32   30.17R
HOLDREGE       CLOUDY    44  28  52 N18G33    30.23R
KEARNEY        CLOUDY    44  28  53 N30G38    30.23R
YORK           CLOUDY    45  30  57 NW25G32   30.16R
$$

NEZ011>018-030>034-042>045-112300-
NORTHEAST NEBRASKA

CITY           SKY/WX    TMP DP  RH WIND       PRES   REMARKS
NORFOLK        CLOUDY    39  33  79 N18G32    30.17R WCI  30
ALBION         CLOUDY    41  32  71 N24G36    30.19R
BLAIR          CLOUDY    42  32  67 NW21G33   30.09R
COLUMBUS       CLOUDY    41  32  70 NW31G38   30.17R
FREMONT        CLOUDY    41  32  69 N20G37    30.14R
TEKAMAH        CLOUDY    41  29  62 N28G36    30.12R
WAYNE          CLOUDY    39  29  68 N24G39    30.15R WCI  28
$$

NEZ050>053-065>068-078-088>093-112300-
SOUTHEAST NEBRASKA

CITY           SKY/WX    TMP DP  RH WIND       PRES   REMARKS
LINCOLN        LGT RAIN  45  32  60 N25G35    30.14R
OMAHA EPPLEY   CLOUDY    43  30  60 N26G44    30.07R
BEATRICE       CLOUDY    46  31  55 NW23G38   30.13R
FALLS CITY     CLOUDY    48  30  49 NW24G31   30.07R
NEBRASKA CITY  DRIZZLE   44  34  68 NW28G39   30.08R
PLATTSMOUTH    CLOUDY    44  33  66 NW24G38   30.07R
$$

NEZ044-045-051>053-067-112300-
OMAHA AREA

CITY           SKY/WX    TMP DP  RH WIND       PRES   REMARKS
OMAHA EPPLEY   CLOUDY    43  30  60 N26G44    30.07R
BLAIR          CLOUDY    42  32  67 NW21G33   30.09R
FREMONT        CLOUDY    41  32  69 N20G37    30.14R
MILLARD        CLOUDY    45  33  61 NW18G30   30.10R
OFFUTT AFB     CLOUDY    44  31  62 NW21G36   30.08R
PLATTSMOUTH    CLOUDY    44  33  66 NW24G38   30.07R
WAHOO          CLOUDY    43  32  64 NW28G37   30.12R
$$



USA.gov is the U.S. government's official web portal to all federal, state and local government web resources and services.